Location: Voorhees State Park
(40.6817°N, 74.8983°W)
Time: 12:44:43
(UTC-04:00)

Daily predictions for brighter satellites

Satellite Brightness Start Highest point End
(mag) Time Altitude Azimuth Time Altitude Azimuth Time Altitude Azimuth
Cosmos 1812 3.5 20:44:10 10° SSW 20:47:59 58° W 20:51:49 10° N
Cosmos 1709 Rocket 4.1 20:46:19 10° N 20:52:38 89° W 20:58:50 10° S
Cosmos 1743 3.6 20:50:01 10° NNE 20:53:31 32° ENE 20:57:02 10° SE
CZ-2D R/B 4.4 20:51:30 10° S 20:55:10 44° W 20:58:51 10° NNW
Iridium 4 Rocket 3.7 20:50:18 10° N 20:55:17 82° W 21:00:43 10° S
Envisat 3.0 20:51:11 10° SSE 20:56:14 75° ENE 21:01:19 10° N
Spot 1 4.2 20:54:32 10° SSE 20:59:07 72° ENE 21:03:27 10° N
ASTRO E2 4.2 20:57:14 10° SW 21:00:19 21° S 21:03:15 11° SE
ASTEX 1 4.3 20:57:32 10° SE 21:01:51 32° ENE 21:06:11 10° NNE
Aureole 3 Rocket 4.2 20:56:03 10° SSE 21:02:31 44° E 21:07:14 10° NNE
Tiangong 2 2.1 21:07:45 10° SSW 21:10:27 26° SSE 21:13:10 10° E
Aureole 1 Rocket 3.4 21:09:08 10° SSE 21:12:02 25° ESE 21:14:38 10° NE
NOSS 2-2 (E) 3.4 21:09:07 10° SSW 21:13:07 82° ESE 21:17:43 10° NE
DNEPR-1 R/B 4.4 21:12:48 10° NNW 21:16:47 38° NE 21:20:18 14° ESE
SL-08 ROCKET BODY 4.5 21:12:38 10° N 21:18:50 78° E 21:25:02 10° S
Meteor 2-4 Rocket 4.1 21:14:37 10° SSE 21:19:55 46° E 21:25:25 10° NNE
USA 186 4.1 21:20:02 10° SSW 21:22:39 22° W 21:25:13 10° NW
ISS -2.8 21:19:59 10° SSW 21:22:46 25° SE 21:25:33 10° ENE
Cosmos 1666 3.0 21:20:34 10° N 21:24:13 48° E 21:26:56 16° SSE
Meteor 2-13 Rocket 4.4 21:20:10 10° N 21:26:14 68° E 21:32:05 11° SSE
OAO 2 Rocket 3.8 21:22:39 10° WSW 21:27:16 40° S 21:31:02 15° ESE
Cosmos 923 Rocket 4.0 21:22:03 10° SSW 21:27:22 82° ESE 21:32:43 10° NNE
Cosmos 1536 Rocket 4.2 21:28:22 10° SSW 21:32:38 57° W 21:36:54 10° N
Cosmos 2184 Rocket 4.0 21:26:22 10° N 21:32:46 78° E 21:38:55 11° S
Cosmos 2074 Rocket 4.0 21:26:41 10° N 21:32:58 81° E 21:39:14 10° S
CZ-3A R/B 2.0 21:29:03 10° SSW 21:32:58 22° SSE 21:33:08 22° SE
Cosmos 1437 4.0 21:31:43 10° SSW 21:34:49 43° WNW 21:37:55 10° N
CZ-4B DEB 3.9 21:32:08 10° S 21:34:57 38° W 21:37:47 10° NNW
Helios 1A 4.2 21:31:06 10° S 21:35:05 40° W 21:39:03 10° NNW
USA 245 3.8 21:38:45 21° E 21:39:12 23° ENE 21:41:16 10° NNE
Meteor 1-29 4.3 21:36:52 10° N 21:40:04 40° WNW 21:43:13 10° SW
Meteor 1-19 Rocket 4.4 21:35:18 10° S 21:41:09 82° W 21:46:56 10° N
Intercosmos 24 4.3 21:37:40 10° N 21:41:28 39° ENE 21:43:05 25° SE
YAOGAN 11 4.4 21:40:58 22° SE 21:43:31 49° ENE 21:47:41 10° N
YAOGAN 6 3.1 21:42:06 13° S 21:45:03 55° W 21:48:30 10° NNW
Cosmos 1656 Rocket 3.8 21:40:00 10° NNW 21:45:25 68° WSW 21:49:49 16° S
ERS-1 Rocket 3.0 21:41:29 15° SSE 21:45:42 88° WSW 21:50:46 10° NNW
Meteor 1-23 Rocket 4.2 21:43:45 11° S 21:49:04 64° E 21:54:37 10° NNE
MetOp-A 4.1 21:45:09 18° SSE 21:49:08 75° ENE 21:54:31 10° N
MOS 1-B Rocket 3.9 21:46:03 18° SSE 21:50:19 73° ENE 21:56:36 10° N
Cosmos 405 Rocket 3.7 21:48:13 10° SSW 21:51:50 46° WNW 21:55:31 10° N
GENESIS II 4.2 21:49:19 10° NNW 21:53:16 68° NE 21:55:01 31° SE
H-2A R/B 2.7 21:52:51 23° ESE 21:55:17 38° ENE 21:59:54 10° N
Cosmos 2058 Rocket 4.3 21:53:36 10° NNE 21:57:18 26° ENE 21:58:34 23° ESE
Meteor 1-15 Rocket 4.3 21:52:38 10° N 21:58:12 62° ENE 22:01:25 25° SSE
Cosmos 2112 Rocket 4.1 21:54:58 10° SSW 22:00:12 78° WNW 22:05:26 10° NNE
Cosmos 192 4.3 21:55:57 10° SSW 22:00:52 88° ESE 22:05:48 10° NNE
Cosmos 1943 Rocket 4.2 21:57:01 10° NW 22:01:07 21° W 22:05:10 10° SSW
Cosmos 1025 Rocket 2.9 21:58:34 19° S 22:01:33 80° E 22:05:50 10° N
CENTAUR R/B 3.4 21:55:13 10° NW 22:03:05 63° WSW 22:09:18 19° SSE
Cosmos 1441 Rocket 3.5 22:01:18 13° SSW 22:04:32 65° W 22:08:16 10° N
Nadezhda 1 Rocket 4.2 22:01:20 10° SSW 22:07:39 74° W 22:14:05 10° N
Cosmos 1624 Rocket 4.3 22:03:23 10° N 22:08:34 55° ENE 22:10:57 30° SE
PSLV R/B 2.9 22:06:58 10° W 22:10:07 90° SE 22:10:40 57° E
NOAA 11 4.4 22:07:48 19° S 22:11:42 67° WSW 22:17:08 10° NNW
Cosmos 2154 Rocket 4.0 22:09:59 10° N 22:16:22 89° W 22:20:26 24° S
SL-08 RB Rocket 3.6 22:14:43 35° SSE 22:16:37 82° ENE 22:21:05 10° N
ARGOS 3.2 22:13:33 26° S 22:16:43 83° WSW 22:22:11 10° NNW
COSMOS 2406 4.3 22:11:23 10° SW 22:16:54 47° WNW 22:22:24 10° NNE
Nimbus 7 Rocket 4.4 22:11:55 10° NNE 22:18:00 74° ESE 22:22:26 19° S
SL-27 R/B 3.6 22:14:58 10° SW 22:18:28 45° WNW 22:22:02 10° N
SL-8 Rocket 4.5 22:14:35 10° N 22:20:32 44° ENE 22:23:03 31° SE
Landsat 7 4.1 22:21:40 37° SE 22:23:12 53° ENE 22:27:50 10° N
SPOT 5 2.8 22:23:04 32° S 22:24:56 65° WSW 22:29:16 10° NNW
H-2A R/B 3.0 22:24:49 32° E 22:25:52 37° ENE 22:30:02 10° N
Cosmos 2278 4.2 22:21:00 10° NNW 22:26:33 48° ENE 22:28:45 32° ESE
Cosmos 2056 Rocket 3.4 22:22:09 10° NNW 22:27:20 74° ENE 22:29:09 40° SE
Cosmos 2082 Rocket 2.8 22:28:02 33° ESE 22:28:41 34° ESE 22:33:45 10° NE
Cosmos 405 4.4 22:30:28 10° NNW 22:33:42 32° W 22:34:56 25° SW
Iridium 82 4.5 22:33:52 10° N 22:37:24 69° E 22:37:24 69° E
Terra 2.1 22:37:12 43° ESE 22:38:16 52° ENE 22:42:54 10° N
CZ-4B R/B 4.4 22:34:40 10° NE 22:39:09 31° E 22:39:09 31° E
Cosmos 839 Rocket 4.3 22:34:46 10° NNW 22:41:21 77° ENE 22:44:54 35° SE
Cosmos 2341 Rocket 4.1 22:38:07 10° N 22:44:27 75° W 22:47:39 31° S
Cosmos 967 Rocket 4.3 22:38:25 10° SSW 22:44:41 85° ESE 22:51:00 10° NNE
Cosmos 2369 3.8 22:39:28 10° NNW 22:45:12 68° ENE 22:46:58 44° SE
SPOT 1/Viking Rocket 3.8 22:44:16 35° SSW 22:46:21 62° WSW 22:51:29 10° NNW
COSMOS 2487 3.1 22:47:21 47° NE 22:47:21 47° NE 22:50:06 10° NNE
Tiangong 2 2.6 22:43:50 10° WSW 22:45:37 30° W 22:45:37 30° W
Cosmos 1437 Rocket 3.6 22:45:00 10° NNW 22:48:37 41° W 22:49:25 36° SW
Cosmos 1697 Rocket 3.4 22:49:35 10° N 22:54:53 41° ENE 22:56:25 34° E
IGS 5A 3.3 22:56:43 75° ESE 22:56:54 77° ENE 23:01:04 10° N
ISS -2.3 22:56:03 10° W 22:59:09 37° NNW 23:02:16 10° NE
Cosmos 1452 Rocket 3.7 22:54:23 10° NNW 22:59:36 59° ENE 23:00:34 50° ESE
Cosmos 2218 Rocket 3.9 22:54:40 10° N 23:00:50 77° E 23:02:38 48° SSE
Cosmos 1271 Rocket 4.4 23:03:01 10° NNE 23:05:37 24° NE 23:05:37 24° NE
Cosmos 2228 3.1 23:02:15 10° NNW 23:06:32 63° W 23:06:54 60° WSW
Cosmos 1602 Rocket 3.6 23:10:37 68° ENE 23:10:37 68° ENE 23:14:40 10° NNE
deb Chang Zheng 4 3.4 23:06:56 10° NNE 23:11:16 84° WNW 23:11:26 80° SW
OAO 2 Rocket 4.3 23:06:56 10° WSW 23:10:00 32° SW 23:10:00 32° SW
Cosmos 1833 Rocket 2.5 23:11:23 58° S 23:12:26 75° ESE 23:18:04 10° NNE
Cosmos 921 Rocket 3.4 23:08:11 10° NNW 23:12:34 53° WSW 23:12:53 51° WSW
Cosmos 1656 3.5 23:09:57 10° NNW 23:15:26 84° ENE 23:16:17 65° SE
Cosmos 1066 Rocket 4.2 23:15:05 46° SSW 23:16:42 73° W 23:22:19 10° N
Meteor 1-21 4.3 23:19:44 56° ESE 23:20:12 58° E 23:25:49 10° NNE
SL-19 R/B 4.2 23:15:59 10° N 23:21:21 72° WNW 23:22:49 47° SW
Cosmos 468 4.3 23:24:10 74° SE 23:24:28 77° ESE 23:29:45 10° NNE
CZ-4 R/B 3.9 23:20:46 10° N 23:25:48 80° WNW 23:26:31 65° SW
Cosmos 1766 3.9 23:22:07 10° N 23:25:11 50° NNE 23:25:11 50° NNE
Nadezhda 3 Rocket 4.1 23:29:12 52° ESE 23:30:04 56° E 23:36:17 10° NNE
Meteor 1-4 Rocket 3.8 23:27:42 10° NNW 23:30:20 39° NW 23:30:20 39° NW
USA 267 3.1 23:24:50 10° NE 23:31:24 73° SE 23:34:02 39° SSW
Meteor 2-14 Rocket 4.3 23:27:58 10° N 23:34:04 87° W 23:35:08 63° S
H-2A R/B 3.6 23:33:29 21° WSW 23:34:49 23° W 23:38:46 10° NW
Cosmos 1980 Rocket 2.4 23:36:12 10° NNW 23:41:49 58° ENE 23:42:26 55° E
SME Rocket 3.8 23:46:35 58° E 23:46:56 60° ENE 23:51:19 10° N
SeaSat 1 3.2 23:46:39 41° ENE 23:47:06 42° ENE 23:51:46 10° NNW
Cosmos 1821 Rocket 4.3 23:43:22 10° N 23:49:30 53° E 23:50:18 49° ESE
Cosmos 2322 Rocket 3.7 23:45:17 10° N 23:50:02 26° NE 23:51:42 23° E
Meteor 2-16 Rocket 4.5 23:47:36 10° NNW 23:53:43 70° W 23:54:38 60° SW
